QPF
0.02 0.01 0.01 0.01 0.00 0.01 0.02 0.04 0.02 0.04 0.04 0.02 0.01 0.02 0.01 0.01 0.01 0.01 0.01 0.01 0.00 0.00 0.00 0.01 0.01 0.01 0.01 0.01 0.00 0.01 0.01 0.01 0.01 0.01 0.00 0.00 0.01 0.01 0.02 0.03 0.03 0.03 0.02
0.02 0.02 0.02 0.03 0.01 0.01 0.02 0.05 0.03 0.07 0.03 0.02 0.02 0.01 0.00 0.00 0.00 0.00 0.00 0.01 0.00 0.00 0.00 0.01 0.01 0.01 0.01 0.01 0.01 0.01 0.00 0.00 0.00 0.00 0.00 0.00 0.00 0.01 0.01 0.02 0.03 0.03 0.03
0.01 0.02 0.03 0.03 0.03 0.03 0.04 0.03 0.03 0.05 0.05 0.04 0.03 0.01 0.01 0.00 0.00 0.00 0.00 0.00 0.00 0.00 0.01 0.02 0.02 0.02 0.01 0.01 0.01 0.01 0.01 0.00 0.00 0.00 0.00 0.00 0.00 0.00 0.01 0.02 0.03 0.04 0.03
0.02 0.02 0.03 0.03 0.04 0.03 0.04 0.08 0.06 0.08 0.11 0.07 0.05 0.02 0.01 0.01 0.01 0.01 0.00 0.00 0.00 0.00 0.01 0.02 0.02 0.01 0.01 0.01 0.01 0.03 0.02 0.01 0.00 0.00 0.00 0.00 0.00 0.00 0.00 0.01 0.01 0.02 0.02
0.02 0.04 0.04 0.06 0.06 0.06 0.07 0.06 0.10 0.13 0.15 0.14 0.08 0.04 0.02 0.02 0.02 0.01 0.01 0.00 0.00 0.00 0.00 0.01 0.02 0.01 0.01 0.01 0.01 0.03 0.03 0.02 0.01 0.00 0.00 0.00 0.00 0.00 0.00 0.00 0.01 0.01 0.01
0.06 0.08 0.06 0.08 0.11 0.13 0.13 0.14 0.18 0.17 0.17 0.17 0.09 0.07 0.06 0.04 0.04 0.03 0.03 0.02 0.01 0.00 0.00 0.01 0.03 0.02 0.02 0.01 0.02 0.03 0.05 0.06 0.03 0.02 0.01 0.01 0.01 0.01 0.00 0.00 0.00 0.00 0.01
0.12 0.16 0.13 0.19 0.19 0.20 0.22 0.21 0.23 0.23 0.22 0.23 0.19 0.16 0.10 0.06 0.04 0.03 0.02 0.02 0.01 0.00 0.00 0.00 0.01 0.03 0.04 0.03 0.03 0.02 0.05 0.08 0.08 0.06 0.04 0.03 0.02 0.02 0.01 0.00 0.00 0.00 0.01
0.18 0.19 0.22 0.23 0.25 0.27 0.27 0.27 0.30 0.29 0.29 0.31 0.30 0.29 0.22 0.14 0.09 0.05 0.06 0.05 0.03 0.02 0.01 0.00 0.00 0.01 0.02 0.04 0.08 0.03 0.03 0.06 0.09 0.09 0.08 0.05 0.03 0.02 0.01 0.01 0.00 0.00 0.00
0.25 0.24 0.28 0.27 0.28 0.29 0.27 0.30 0.32 0.33 0.33 0.34 0.33 0.32 0.28 0.23 0.17 0.13 0.14 0.12 0.07 0.03 0.02 0.00 0.00 0.00 0.01 0.03 0.10 0.09 0.04 0.03 0.05 0.06 0.08 0.06 0.04 0.02 0.02 0.01 0.01 0.01 0.01
0.24 0.24 0.26 0.27 0.27 0.29 0.28 0.29 0.30 0.32 0.33 0.35 0.36 0.34 0.32 0.31 0.27 0.18 0.11 0.09 0.07 0.04 0.02 0.01 0.01 0.01 0.01 0.03 0.06 0.06 0.04 0.03 0.02 0.02 0.04 0.05 0.04 0.03 0.02 0.02 0.02 0.02 0.02
0.23 0.20 0.21 0.20 0.21 0.22 0.25 0.28 0.31 0.35 0.36 0.36 0.36 0.36 0.36 0.33 0.28 0.21 0.15 0.11 0.09 0.05 0.04 0.03 0.02 0.02 0.02 0.03 0.06 0.04 0.04 0.03 0.01 0.01 0.01 0.02 0.03 0.03 0.03 0.02 0.03 0.03 0.03
0.22 0.18 0.19 0.21 0.21 0.22 0.25 0.29 0.31 0.35 0.37 0.35 0.35 0.34 0.33 0.31 0.28 0.23 0.18 0.15 0.12 0.05 0.02 0.02 0.02 0.02 0.02 0.02 0.03 0.02 0.02 0.01 0.00 0.00 0.01 0.01 0.01 0.02 0.02 0.02 0.02 0.03 0.04
0.22 0.20 0.20 0.21 0.21 0.24 0.29 0.34 0.38 0.40 0.42 0.40 0.40 0.38 0.31 0.25 0.22 0.19 0.15 0.12 0.09 0.04 0.04 0.02 0.01 0.01 0.01 0.01 0.04 0.01 0.00 0.00 0.00 0.00 0.00 0.00 0.01 0.01 0.01 0.01 0.01 0.02 0.04
0.20 0.22 0.22 0.22 0.22 0.24 0.29 0.36 0.43 0.46 0.44 0.42 0.38 0.33 0.26 0.21 0.17 0.14 0.11 0.09 0.06 0.04 0.05 0.05 0.02 0.01 0.01 0.01 0.01 0.00 0.00 0.00 0.00 0.00 0.00 0.00 0.00 0.01 0.01 0.02 0.02 0.02 0.03
0.18 0.19 0.22 0.23 0.25 0.29 0.34 0.36 0.39 0.41 0.40 0.36 0.30 0.25 0.21 0.17 0.13 0.10 0.08 0.06 0.05 0.04 0.04 0.05 0.04 0.02 0.01 0.01 0.01 0.00 0.02 0.01 0.00 0.00 0.00 0.00 0.01 0.01 0.01 0.01 0.01 0.02 0.02
0.23 0.22 0.26 0.31 0.35 0.38 0.40 0.39 0.38 0.36 0.31 0.28 0.25 0.23 0.20 0.14 0.09 0.07 0.05 0.04 0.03 0.02 0.02 0.02 0.02 0.01 0.01 0.01 0.01 0.02 0.03 0.01 0.00 0.00 0.00 0.00 0.01 0.01 0.01 0.01 0.01 0.01 0.02
0.28 0.32 0.36 0.37 0.37 0.38 0.37 0.36 0.37 0.35 0.31 0.27 0.21 0.17 0.13 0.09 0.07 0.05 0.03 0.02 0.01 0.01 0.01 0.01 0.02 0.02 0.03 0.03 0.03 0.04 0.05 0.06 0.04 0.01 0.00 0.00 0.00 0.00 0.00 0.00 0.00 0.01 0.02
0.27 0.32 0.35 0.41 0.45 0.44 0.40 0.35 0.32 0.29 0.26 0.22 0.17 0.11 0.08 0.06 0.05 0.03 0.02 0.01 0.01 0.02 0.01 0.02 0.02 0.02 0.03 0.03 0.04 0.05 0.04 0.04 0.07 0.02 0.01 0.00 0.00 0.00 0.00 0.00 0.00 0.01 0.03
0.31 0.32 0.33 0.35 0.38 0.43 0.43 0.41 0.36 0.30 0.23 0.15 0.10 0.06 0.05 0.04 0.02 0.01 0.01 0.01 0.01 0.01 0.02 0.02 0.02 0.02 0.02 0.02 0.02 0.03 0.05 0.07 0.06 0.02 0.00 0.00 0.00 0.00 0.00 0.00 0.00 0.01 0.04
0.40 0.36 0.33 0.31 0.29 0.31 0.30 0.29 0.27 0.23 0.16 0.09 0.05 0.03 0.02 0.01 0.00 0.00 0.00 0.00 0.00 0.01 0.01 0.01 0.01 0.01 0.02 0.02 0.02 0.02 0.04 0.06 0.06 0.07 0.05 0.02 0.01 0.01 0.00 0.00 0.01 0.02 0.04
0.37 0.34 0.28 0.28 0.27 0.25 0.21 0.16 0.14 0.11 0.08 0.05 0.02 0.01 0.00 0.00 0.00 0.00 0.00 0.00 0.00 0.00 0.00 0.01 0.01 0.01 0.01 0.01 0.01 0.02 0.03 0.04 0.06 0.08 0.09 0.10 0.09 0.07 0.06 0.04 0.02 0.02 0.04
0.29 0.26 0.25 0.23 0.20 0.15 0.12 0.07 0.05 0.05 0.05 0.04 0.02 0.01 0.00 0.00 0.00 0.00 0.00 0.00 0.00 0.00 0.00 0.01 0.01 0.01 0.01 0.01 0.01 0.01 0.02 0.03 0.04 0.06 0.06 0.09 0.13 0.13 0.13 0.11 0.07 0.05 0.04
0.22 0.20 0.18 0.15 0.11 0.07 0.05 0.03 0.03 0.03 0.03 0.02 0.01 0.01 0.00 0.00 0.00 0.00 0.00 0.00 0.00 0.00 0.00 0.01 0.02 0.01 0.01 0.01 0.01 0.01 0.02 0.04 0.06 0.06 0.05 0.06 0.08 0.08 0.10 0.08 0.06 0.07 0.06
0.15 0.13 0.11 0.09 0.06 0.04 0.03 0.02 0.02 0.03 0.02 0.01 0.00 0.00 0.00 0.00 0.00 0.00 0.00 0.01 0.01 0.00 0.00 0.00 0.01 0.01 0.00 0.00 0.00 0.01 0.03 0.05 0.08 0.09 0.07 0.06 0.07 0.06 0.06 0.06 0.05 0.05 0.06
0.10 0.08 0.08 0.05 0.02 0.01 0.01 0.01 0.01 0.04 0.03 0.01 0.00 0.00 0.00 0.00 0.00 0.00 0.00 0.01 0.02 0.02 0.00 0.00 0.00 0.00 0.00 0.00 0.00 0.01 0.02 0.03 0.05 0.08 0.09 0.06 0.07 0.07 0.08 0.09 0.08 0.07 0.06
0.07 0.06 0.05 0.04 0.01 0.00 0.00 0.00 0.00 0.03 0.03 0.01 0.00 0.00 0.00 0.00 0.00 0.00 0.00 0.01 0.01 0.01 0.01 0.01 0.02 0.01 0.02 0.02 0.01 0.03 0.04 0.04 0.04 0.06 0.08 0.07 0.09 0.11 0.12 0.14 0.13 0.10 0.08
MSLP
1011.55 1011.73 1011.87 1011.98 1012.08 1012.19 1012.33 1012.47 1012.61 1012.71 1012.74 1012.67 1012.51 1012.27 1011.99 1011.73 1011.52 1011.42 1011.45 1011.60 1011.86 1012.18 1012.52 1012.83 1013.07 1013.24 1013.34 1013.37 1013.39 1013.41 1013.47 1013.60 1013.80 1014.06 1014.39 1014.75 1015.13 1015.51 1015.88 1016.21 1016.52 1016.81 1017.08
1010.76 1010.97 1011.15 1011.31 1011.47 1011.62 1011.79 1011.96 1012.12 1012.23 1012.28 1012.25 1012.11 1011.90 1011.63 1011.36 1011.12 1010.96 1010.92 1011.01 1011.21 1011.49 1011.82 1012.15 1012.44 1012.67 1012.83 1012.93 1012.99 1013.03 1013.09 1013.19 1013.35 1013.58 1013.88 1014.22 1014.59 1014.96 1015.33 1015.69 1016.01 1016.32 1016.62
1010.01 1010.24 1010.47 1010.68 1010.89 1011.09 1011.30 1011.51 1011.70 1011.86 1011.96 1011.98 1011.90 1011.73 1011.49 1011.21 1010.93 1010.71 1010.58 1010.56 1010.66 1010.86 1011.13 1011.45 1011.76 1012.04 1012.26 1012.43 1012.54 1012.61 1012.69 1012.78 1012.92 1013.11 1013.37 1013.67 1014.02 1014.38 1014.75 1015.11 1015.45 1015.78 1016.11
1009.34 1009.59 1009.85 1010.11 1010.37 1010.63 1010.88 1011.14 1011.38 1011.59 1011.75 1011.83 1011.82 1011.71 1011.51 1011.24 1010.93 1010.64 1010.41 1010.26 1010.23 1010.32 1010.50 1010.77 1011.06 1011.36 1011.63 1011.85 1012.01 1012.13 1012.23 1012.33 1012.46 1012.63 1012.85 1013.12 1013.43 1013.77 1014.12 1014.48 1014.83 1015.18 1015.53
1008.78 1009.03 1009.32 1009.62 1009.93 1010.23 1010.54 1010.83 1011.12 1011.38 1011.60 1011.76 1011.82 1011.78 1011.63 1011.38 1011.05 1010.70 1010.37 1010.10 1009.93 1009.88 1009.96 1010.13 1010.38 1010.67 1010.95 1011.21 1011.42 1011.59 1011.72 1011.84 1011.97 1012.12 1012.32 1012.56 1012.84 1013.15 1013.48 1013.82 1014.16 1014.52 1014.88
1008.31 1008.56 1008.87 1009.20 1009.55 1009.90 1010.24 1010.57 1010.90 1011.21 1011.48 1011.70 1011.84 1011.86 1011.77 1011.55 1011.23 1010.83 1010.42 1010.05 1009.75 1009.57 1009.51 1009.58 1009.76 1010.01 1010.28 1010.56 1010.80 1011.01 1011.18 1011.33 1011.47 1011.63 1011.81 1012.03 1012.28 1012.56 1012.85 1013.16 1013.48 1013.82 1014.17
1007.90 1008.14 1008.46 1008.82 1009.19 1009.58 1009.95 1010.32 1010.67 1011.02 1011.34 1011.61 1011.81 1011.90 1011.86 1011.68 1011.38 1010.97 1010.51 1010.05 1009.66 1009.36 1009.19 1009.16 1009.25 1009.44 1009.69 1009.96 1010.22 1010.45 1010.66 1010.84 1011.00 1011.17 1011.36 1011.57 1011.79 1012.04 1012.29 1012.56 1012.83 1013.12 1013.43
1007.51 1007.73 1008.04 1008.41 1008.81 1009.22 1009.63 1010.02 1010.41 1010.78 1011.14 1011.45 1011.70 1011.84 1011.86 1011.73 1011.46 1011.06 1010.59 1010.10 1009.63 1009.25 1009.00 1008.88 1008.89 1009.02 1009.23 1009.47 1009.73 1009.98 1010.20 1010.41 1010.61 1010.80 1010.99 1011.20 1011.41 1011.61 1011.82 1012.03 1012.23 1012.45 1012.71
1007.09 1007.26 1007.55 1007.92 1008.34 1008.77 1009.21 1009.63 1010.05 1010.46 1010.85 1011.21 1011.50 1011.69 1011.76 1011.68 1011.46 1011.09 1010.64 1010.14 1009.66 1009.24 1008.93 1008.75 1008.70 1008.77 1008.93 1009.14 1009.38 1009.62 1009.86 1010.08 1010.30 1010.51 1010.72 1010.93 1011.12 1011.30 1011.46 1011.60 1011.73 1011.86 1012.02
1006.59 1006.70 1006.95 1007.30 1007.72 1008.18 1008.65 1009.11 1009.58 1010.03 1010.47 1010.86 1011.20 1011.44 1011.55 1011.53 1011.36 1011.05 1010.64 1010.17 1009.71 1009.30 1008.97 1008.76 1008.67 1008.69 1008.80 1008.97 1009.17 1009.39 1009.61 1009.84 1010.07 1010.30 1010.52 1010.73 1010.92 1011.08 1011.19 1011.27 1011.31 1011.35 1011.41
1006.02 1006.05 1006.23 1006.54 1006.95 1007.42 1007.92 1008.44 1008.97 1009.48 1009.98 1010.43 1010.81 1011.10 1011.27 1011.29 1011.18 1010.93 1010.58 1010.17 1009.76 1009.38 1009.08 1008.86 1008.76 1008.74 1008.80 1008.92 1009.07 1009.25 1009.45 1009.66 1009.88 1010.11 1010.35 1010.56 1010.75 1010.89 1010.98 1011.00 1010.97 1010.92 1010.88
1005.43 1005.34 1005.43 1005.67 1006.05 1006.52 1007.06 1007.64 1008.23 1008.83 1009.40 1009.92 1010.36 1010.70 1010.92 1011.00 1010.94 1010.75 1010.47 1010.13 1009.78 1009.46 1009.20 1009.01 1008.90 1008.86 1008.88 1008.95 1009.04 1009.16 1009.31 1009.49 1009.69 1009.91 1010.15 1010.38 1010.57 1010.71 1010.77 1010.75 1010.67 1010.54 1010.41
1004.88 1004.66 1004.63 1004.79 1005.10 1005.56 1006.12 1006.75 1007.43 1008.11 1008.76 1009.36 1009.87 1010.27 1010.54 1010.66 1010.65 1010.52 1010.31 1010.05 1009.77 1009.52 1009.31 1009.16 1009.06 1009.00 1008.99 1008.99 1009.02 1009.08 1009.16 1009.29 1009.45 1009.66 1009.89 1010.12 1010.33 1010.47 1010.53 1010.49 1010.36 1010.18 1009.97
1004.48 1004.12 1003.96 1004.00 1004.24 1004.66 1005.22 1005.89 1006.63 1007.38 1008.12 1008.80 1009.38 1009.83 1010.14 1010.31 1010.35 1010.27 1010.12 1009.93 1009.73 1009.55 1009.40 1009.28 1009.20 1009.13 1009.08 1009.03 1008.99 1008.97 1008.98 1009.04 1009.16 1009.34 1009.56 1009.79 1010.00 1010.16 1010.22 1010.18 1010.03 1009.80 1009.53
1004.32 1003.83 1003.54 1003.46 1003.61 1003.96 1004.49 1005.17 1005.94 1006.75 1007.55 1008.28 1008.92 1009.42 1009.77 1009.98 1010.06 1010.03 1009.93 1009.80 1009.67 1009.55 1009.46 1009.39 1009.32 1009.25 1009.17 1009.07 1008.96 1008.86 1008.80 1008.79 1008.85 1008.98 1009.18 1009.40 1009.62 1009.79 1009.86 1009.82 1009.66 1009.40 1009.08
1004.46 1003.88 1003.47 1003.28 1003.32 1003.59 1004.07 1004.71 1005.48 1006.30 1007.12 1007.89 1008.55 1009.08 1009.46 1009.70 1009.81 1009.82 1009.78 1009.70 1009.63 1009.58 1009.54 1009.51 1009.46 1009.39 1009.28 1009.13 1008.96 1008.79 1008.65 1008.56 1008.56 1008.65 1008.81 1009.01 1009.22 1009.39 1009.46 1009.42 1009.25 1008.97 1008.60
1004.94 1004.31 1003.83 1003.54 1003.48 1003.66 1004.04 1004.62 1005.33 1006.12 1006.92 1007.68 1008.34 1008.87 1009.26 1009.52 1009.65 1009.70 1009.70 1009.68 1009.67 1009.67 1009.68 1009.68 1009.66 1009.59 1009.46 1009.28 1009.06 1008.82 1008.61 1008.45 1008.38 1008.40 1008.51 1008.67 1008.86 1009.00 1009.07 1009.02 1008.83 1008.52 1008.12
1005.68 1005.06 1004.56 1004.22 1004.08 1004.15 1004.44 1004.91 1005.53 1006.24 1006.98 1007.68 1008.31 1008.82 1009.20 1009.46 1009.62 1009.70 1009.74 1009.77 1009.81 1009.86 1009.91 1009.95 1009.95 1009.88 1009.75 1009.54 1009.28 1008.99 1008.71 1008.49 1008.35 1008.30 1008.34 1008.45 1008.58 1008.68 1008.71 1008.63 1008.42 1008.09 1007.66
1006.58 1006.04 1005.57 1005.21 1005.02 1005.01 1005.19 1005.55 1006.05 1006.64 1007.28 1007.90 1008.47 1008.94 1009.30 1009.56 1009.73 1009.83 1009.91 1009.98 1010.06 1010.15 1010.25 1010.31 1010.33 1010.28 1010.15 1009.92 1009.64 1009.31 1008.98 1008.70 1008.49 1008.36 1008.32 1008.35 1008.40 1008.44 1008.42 1008.29 1008.04 1007.68 1007.23
1007.51 1007.09 1006.69 1006.37 1006.16 1006.09 1006.18 1006.43 1006.80 1007.27 1007.80 1008.32 1008.80 1009.22 1009.55 1009.80 1009.97 1010.10 1010.21 1010.31 1010.42 1010.55 1010.66 1010.76 1010.79 1010.75 1010.62 1010.39 1010.09 1009.74 1009.38 1009.05 1008.77 1008.57 1008.44 1008.37 1008.33 1008.29 1008.19 1008.00 1007.72 1007.33 1006.87
1008.32 1008.05 1007.77 1007.51 1007.32 1007.22 1007.25 1007.41 1007.67 1008.03 1008.44 1008.87 1009.27 1009.63 1009.93 1010.16 1010.33 1010.47 1010.60 1010.72 1010.85 1010.98 1011.11 1011.21 1011.26 1011.22 1011.10 1010.88 1010.58 1010.22 1009.84 1009.47 1009.14 1008.86 1008.65 1008.48 1008.34 1008.20 1008.01 1007.77 1007.44 1007.04 1006.59
1008.91 1008.79 1008.63 1008.46 1008.32 1008.24 1008.24 1008.34 1008.53 1008.80 1009.12 1009.47 1009.81 1010.12 1010.38 1010.60 1010.77 1010.91 1011.03 1011.15 1011.28 1011.41 1011.53 1011.62 1011.66 1011.62 1011.50 1011.30 1011.01 1010.66 1010.28 1009.88 1009.51 1009.18 1008.88 1008.62 1008.39 1008.15 1007.88 1007.58 1007.22 1006.82 1006.40
1009.21 1009.23 1009.19 1009.12 1009.05 1009.01 1009.02 1009.10 1009.26 1009.48 1009.76 1010.06 1010.35 1010.63 1010.87 1011.07 1011.23 1011.36 1011.46 1011.56 1011.66 1011.76 1011.85 1011.91 1011.93 1011.89 1011.77 1011.58 1011.31 1010.98 1010.61 1010.22 1009.83 1009.45 1009.10 1008.76 1008.44 1008.12 1007.79 1007.43 1007.06 1006.67 1006.29
1009.23 1009.35 1009.42 1009.44 1009.45 1009.47 1009.53 1009.63 1009.80 1010.02 1010.28 1010.56 1010.85 1011.11 1011.34 1011.53 1011.67 1011.77 1011.85 1011.91 1011.96 1012.00 1012.04 1012.06 1012.04 1011.98 1011.87 1011.69 1011.45 1011.15 1010.81 1010.44 1010.05 1009.65 1009.26 1008.87 1008.49 1008.11 1007.73 1007.35 1006.97 1006.60 1006.28
1009.03 1009.22 1009.37 1009.47 1009.56 1009.65 1009.77 1009.93 1010.13 1010.38 1010.67 1010.97 1011.26 1011.53 1011.75 1011.93 1012.05 1012.12 1012.16 1012.16 1012.15 1012.13 1012.11 1012.07 1012.02 1011.93 1011.81 1011.65 1011.44 1011.18 1010.88 1010.54 1010.17 1009.78 1009.38 1008.97 1008.56 1008.14 1007.73 1007.33 1006.96 1006.63 1006.35
1008.71 1008.95 1009.14 1009.31 1009.47 1009.64 1009.83 1010.05 1010.31 1010.61 1010.93 1011.26 1011.57 1011.85 1012.08 1012.25 1012.35 1012.39 1012.38 1012.34 1012.27 1012.19 1012.10 1012.01 1011.91 1011.80 1011.68 1011.53 1011.35 1011.13 1010.87 1010.57 1010.24 1009.88 1009.49 1009.08 1008.66 1008.23 1007.81 1007.42 1007.05 1006.75 1006.52
Thickness
5800 5800 5799 5797 5794 5791 5789 5786 5785 5784 5782 5782 5781 5781 5781 5781 5780 5780 5780 5777 5775 5773 5770 5768 5766 5763 5761 5759 5758 5757 5755 5754 5753 5751 5749 5748 5746 5743 5741 5739 5736 5733 5730
5801 5798 5796 5793 5791 5789 5788 5786 5784 5781 5779 5779 5779 5779 5779 5778 5779 5779 5779 5778 5776 5773 5771 5770 5767 5765 5763 5760 5759 5757 5755 5754 5753 5751 5750 5748 5746 5744 5742 5740 5737 5735 5732
5800 5796 5793 5790 5788 5786 5784 5782 5780 5778 5776 5775 5774 5774 5775 5775 5776 5777 5777 5776 5775 5773 5772 5770 5768 5766 5763 5761 5759 5757 5756 5754 5752 5751 5749 5748 5746 5744 5742 5740 5738 5736 5733
5798 5793 5790 5787 5786 5784 5782 5778 5775 5771 5769 5768 5767 5768 5770 5772 5773 5774 5774 5773 5774 5774 5772 5770 5767 5765 5763 5761 5760 5758 5756 5754 5752 5750 5748 5747 5745 5743 5741 5739 5738 5736 5734
5794 5789 5786 5784 5781 5779 5776 5774 5770 5766 5762 5761 5760 5761 5763 5765 5767 5770 5770 5770 5771 5771 5771 5770 5767 5764 5762 5760 5759 5757 5755 5753 5751 5749 5747 5746 5744 5742 5741 5739 5737 5736 5733
5790 5786 5782 5778 5775 5771 5769 5766 5761 5759 5756 5753 5753 5754 5755 5758 5762 5764 5765 5766 5767 5768 5768 5767 5765 5762 5760 5758 5757 5756 5754 5752 5750 5748 5746 5744 5743 5741 5740 5738 5736 5735 5733
5784 5780 5775 5772 5768 5763 5761 5759 5754 5750 5747 5745 5740 5740 5745 5751 5755 5758 5760 5760 5762 5764 5764 5762 5761 5759 5758 5756 5754 5753 5751 5750 5748 5746 5744 5743 5741 5740 5738 5737 5735 5734 5732
5778 5773 5768 5765 5762 5757 5754 5752 5748 5743 5740 5738 5731 5726 5726 5733 5743 5752 5754 5754 5755 5757 5757 5758 5756 5755 5754 5754 5752 5749 5748 5747 5745 5744 5742 5740 5739 5738 5737 5735 5734 5733 5731
5771 5768 5763 5760 5758 5753 5748 5746 5743 5738 5733 5733 5730 5723 5717 5717 5724 5736 5743 5745 5747 5748 5750 5752 5752 5752 5750 5750 5749 5747 5744 5742 5741 5740 5739 5737 5736 5735 5734 5733 5731 5730 5729
5764 5762 5758 5755 5752 5749 5746 5743 5740 5736 5730 5725 5723 5723 5721 5718 5712 5716 5727 5735 5739 5741 5743 5745 5745 5746 5746 5745 5745 5743 5740 5737 5736 5735 5734 5733 5732 5732 5730 5729 5728 5727 5726
5756 5755 5753 5750 5747 5744 5742 5739 5735 5732 5728 5723 5719 5716 5714 5712 5711 5706 5709 5719 5727 5733 5737 5738 5738 5739 5739 5740 5739 5736 5733 5731 5730 5729 5728 5728 5727 5726 5726 5724 5724 5723 5723
5749 5748 5747 5744 5742 5739 5737 5735 5731 5727 5724 5720 5717 5713 5710 5707 5705 5705 5703 5707 5712 5721 5730 5733 5733 5732 5733 5734 5732 5729 5727 5725 5724 5723 5723 5722 5722 5721 5720 5719 5718 5718 5718
5739 5740 5739 5737 5735 5734 5732 5729 5725 5721 5718 5714 5711 5708 5706 5705 5705 5704 5701 5702 5705 5712 5720 5724 5727 5728 5727 5726 5724 5722 5721 5720 5719 5718 5718 5717 5716 5715 5715 5714 5713 5713 5714
5728 5730 5730 5728 5727 5726 5724 5721 5718 5714 5711 5707 5705 5702 5699 5699 5700 5700 5698 5696 5695 5699 5706 5710 5717 5719 5719 5718 5717 5716 5716 5715 5714 5713 5712 5711 5710 5709 5709 5708 5708 5708 5708
5716 5718 5718 5716 5715 5714 5712 5710 5706 5704 5701 5698 5696 5694 5692 5694 5695 5697 5697 5694 5690 5686 5689 5698 5702 5708 5709 5709 5709 5709 5710 5710 5709 5708 5707 5706 5705 5704 5703 5702 5702 5703 5704
5700 5702 5702 5701 5700 5701 5701 5699 5696 5693 5690 5688 5686 5684 5685 5686 5687 5688 5689 5690 5689 5684 5682 5689 5692 5697 5699 5700 5701 5701 5703 5705 5704 5703 5701 5700 5699 5698 5697 5696 5696 5697 5699
5686 5686 5686 5686 5686 5687 5688 5687 5685 5684 5681 5679 5677 5676 5676 5676 5676 5679 5681 5682 5682 5680 5676 5680 5685 5688 5689 5689 5691 5693 5696 5698 5698 5697 5696 5694 5693 5692 5690 5690 5690 5692 5694
5672 5672 5672 5672 5672 5673 5675 5674 5673 5672 5670 5668 5667 5667 5667 5668 5667 5669 5671 5672 5673 5673 5671 5669 5673 5678 5679 5681 5681 5684 5687 5690 5690 5690 5689 5687 5685 5684 5683 5683 5684 5685 5688
5657 5657 5658 5658 5658 5660 5660 5659 5658 5659 5658 5659 5658 5657 5657 5658 5657 5658 5661 5662 5663 5665 5665 5664 5665 5668 5669 5670 5670 5672 5675 5677 5680 5681 5679 5677 5676 5675 5676 5676 5677 5679 5681
5645 5645 5644 5645 5646 5646 5647 5646 5647 5646 5645 5645 5646 5646 5646 5647 5647 5648 5651 5651 5653 5654 5655 5656 5655 5656 5655 5656 5656 5656 5658 5662 5664 5667 5667 5668 5667 5666 5667 5668 5669 5671 5674
5634 5634 5634 5633 5634 5634 5634 5635 5636 5635 5634 5634 5633 5634 5635 5637 5638 5639 5641 5640 5642 5642 5643 5643 5642 5641 5640 5639 5639 5641 5643 5646 5649 5652 5652 5655 5656 5656 5657 5658 5659 5661 5665
5625 5624 5624 5623 5623 5623 5622 5624 5627 5626 5625 5625 5624 5625 5626 5629 5630 5631 5631 5631 5631 5631 5630 5629 5629 5627 5626 5626 5626 5627 5628 5629 5630 5636 5637 5639 5642 5643 5646 5648 5649 5651 5654
5618 5616 5615 5614 5612 5611 5613 5615 5618 5618 5618 5618 5618 5619 5623 5621 5621 5622 5623 5624 5623 5623 5621 5619 5617 5615 5615 5614 5613 5614 5614 5615 5616 5620 5622 5623 5628 5629 5633 5636 5637 5640 5643
5615 5612 5610 5608 5607 5606 5606 5608 5609 5611 5612 5612 5612 5613 5612 5611 5611 5613 5616 5617 5617 5616 5615 5613 5611 5609 5608 5605 5603 5602 5602 5604 5605 5606 5607 5607 5612 5615 5619 5622 5624 5627 5631
5612 5609 5608 5605 5603 5600 5600 5601 5602 5605 5606 5606 5605 5604 5605 5604 5603 5607 5609 5608 5608 5606 5607 5605 5603 5601 5599 5596 5593 5589 5589 5588 5588 5590 5592 5592 5597 5602 5607 5610 5613 5615 5617
5610 5607 5604 5603 5601 5598 5596 5597 5597 5601 5601 5600 5598 5597 5596 5597 5597 5598 5599 5598 5596 5595 5596 5597 5596 5595 5592 5588 5584 5579 5576 5573 5573 5575 5578 5579 5583 5586 5592 5598 5601 5603 5606